STARLINK-31182, 59159

Orbit data source: Space-Track

STARLINK-31182, 59159 is a payload satellite owned by SpaceX/Seattle (US) in LEO that was launched on Mon, 04 Mar 2024 UTC via an FALCON 9 launch vehicle from the Air Force Eastern Test Range (AFETR). Payload-class satellites include a variety of spacecraft equipped with specific instruments for various scientific and technological missions. These include communications satellites like Starlink; space stations such as the ISS; scientific satellites like the Hubble; Earth observation satellites from companies like Planet Labs, Umbra, and HawkEye 360; GPS; miniature CubeSats for education and research; and military/defense satellites.

Loading next visibility...
Identifier
59159, 2024-044H
Orbit
LEO
Country
Flag of USUS
Related business
Manufacturer
SpaceX/Seattle
Mission
Operational Commercial Communications
Bus & Motor
STARLINK V2M, Unknown motor
Mass
730 kg wet, ~700 kg dry
Launch date (UTC)
2024-03-04 (2 years ago)
Launch vehicle
FALCON 9
Launch site
Air Force Eastern Test Range (AFETR)
Object type
Payload
Rocket body
Debris
Shape & HBR
Box + 2 Pan, 17.7 m
Radar Cross Section
33.884 m², Large (>1 m²)

Expand to show TLE details & history
Last TLE update: 2 days ago

TLE from 2 days ago
0 STARLINK-31182
1 59159U 24044H   26171.24134703 -.00000096  00000-0  60435-5 0  9993
2 59159  43.0001 247.5197 0001255 276.8264  83.2445 15.27578986129288
Epoch: 2026-06-20T05:47Z
TLE epoch observation values (Epoch: 2026-06-20T05:47:32.383Z)
Latitude
-0°
Longitude
-107.82403°
Altitude
482.726 km
Speed
7.626 km/s
True Right ascension
16h 30m 04s
True Declination
0° 00' 00"
Sunlit
Object was in full shadow at epoch
Visualization orbit readout
Latitude
Unknown
Longitude
Unknown
Altitude
Unknown
Speed
Unknown
Apparent Right ascension
Unknown
Apparent Declination
Unknown
Sunlit
N/A
Visualization observer readout
Local Sidereal Time
21:39:15
Azimuth
Unknown
Elevation
Unknown
Doppler factor
Unknown
Orbital elements
Apogee altitude
485.859 km
Perigee altitude
484.136 km
Semi-major axis
6,863.134 km
Eccentricity
0.00013
Inclination
43.0001°
RAAN
247.5197°
Arg. of periapsis
276.8264°
True anomaly
83.25878°
Mean anomaly
83.2445°
Eccentric anomaly
83.25164°
Mean motion
3.81733 °/min
Orbital period
94.31 mins
BSTAR
0.0000060435
Loading maneuver chart data...
Computing Atmospheric mass density...
Loading historical data...
Loading historical data...
Loading historical data...
Loading historical data...
Loading historical data...
Loading historical data...
Loading historical data...

Documentation

Showing up to 5 results
|